Weather in Berezovka

Russia / Novosibirsk Oblast     54°59′39″N   83°20′08″E
temp.,
°C
wind,
m/s
gust,
m/s
humid.,
%
clouds,
%
prec.,
mm/h
press.,
hPa
HPBL,
m
28 february, sun
sun2801:00−29ssw3310099 0.1 103941
04:00−30ssw339984 0.0 103934
07:00−30s339765 0.0 103926
10:00−26sse369657 0.0 1038183
13:00−20sse479058 0.0 1035345
16:00−16s478886 0.0 1032499
19:00−16se369693 0.1 1029183
22:00−14se499497 0.4 1026266
1 march, mon
mon101:00−12se499599 0.6 1023307
04:00−11se4995100 0.4 1019323
07:00−9se51095100 1.5 1015446
10:00−6sse51095100 1.7 1012577
13:00−4se5995100 3.6 1010591
16:000sw61399100 4.6 1008756
19:000sw61298100 8.0 1007688
22:00−3nnw1398100 2.8 1007178
2 march, tue
tue201:00−10nne4796100 4.8 1009201
04:00−12nne369596 0.3 1011181
07:00−14nne239695 0.7 101476
10:00−14nne229591 0.1 1016130
13:00−11wnw128896 0.3 1018389
16:00−10wsw3389100 0.1 1018456
19:00−14ssw129699 0.2 101821
22:00−15s129699 0.1 101820
3 march, wed
wed301:00−15sse1197100 0.1 101720
04:00−14se1196100 0.1 101620
07:00−14ese1296100 0.4 101620
10:00−12e1194100 0.3 1015122
13:00−9wsw1189100 0.6 1016345
16:00−9wsw4492100 0.3 1017420
19:00−12sw239698 0.5 102058
22:00−15sw339788 0.1 102245
4 march, thu
thu401:00−16ssw369890 0.2 1024141
04:00−18ssw3399100 0.1 102556
07:00−21sse349897 0.1 102664
10:00−17s499477 0.0 1026264
13:00−11s589178 0.0 1025365
16:00−9s599097 0.0 1023488
19:00−8sse4109298 0.0 1022355
22:00−9sse41094100 0.0 1019253